Time,TemperatureF,DewpointF,PressureIn,WindDirection,WindDirectionDegrees,WindSpeedMPH,WindSpeedGustMPH,Humidity,HourlyPrecipIn,Conditions,Clouds,dailyrainin,SoftwareType,DateUTC
2013-05-09 00:02:00,41.0,38.0,-100.00,ESE,107,3.0,5.0,87,0.00,,,-99.99,,2013-05-09 06:02:00,
2013-05-09 00:11:00,42.0,37.0,-100.00,ESE,107,3.0,7.0,83,0.00,,,-99.99,,2013-05-09 06:11:00,
2013-05-09 00:21:00,42.0,37.0,-100.00,ESE,107,2.0,5.0,84,0.00,,,-99.99,,2013-05-09 06:21:00,
2013-05-09 00:32:00,42.0,37.0,-100.00,ESE,107,2.0,4.0,85,0.00,,,-99.99,,2013-05-09 06:32:00,
2013-05-09 00:42:00,41.0,37.0,-100.00,ESE,107,2.0,3.0,85,0.00,,,-99.99,,2013-05-09 06:42:00,
2013-05-09 00:52:00,41.0,37.0,-100.00,ESE,107,1.0,2.0,85,0.00,,,-99.99,,2013-05-09 06:52:00,
2013-05-09 01:01:00,41.0,37.0,-100.00,ESE,107,1.0,2.0,86,0.00,,,-99.99,,2013-05-09 07:01:00,
2013-05-09 01:12:00,41.0,37.0,-100.00,ESE,107,2.0,4.0,85,0.00,,,-99.99,,2013-05-09 07:12:00,
2013-05-09 01:21:00,41.0,37.0,-100.00,ESE,107,2.0,4.0,86,0.00,,,-99.99,,2013-05-09 07:21:00,
2013-05-09 01:32:00,41.0,37.0,-100.00,ESE,107,3.0,4.0,88,0.00,,,-99.99,,2013-05-09 07:32:00,
2013-05-09 01:42:00,41.0,38.0,-100.00,ESE,107,3.0,5.0,88,0.00,,,-99.99,,2013-05-09 07:42:00,
2013-05-09 01:52:00,41.0,37.0,-100.00,ESE,107,1.0,3.0,87,0.00,,,-99.99,,2013-05-09 07:52:00,
2013-05-09 02:02:00,41.0,37.0,-100.00,ESE,107,2.0,3.0,86,0.00,,,-99.99,,2013-05-09 08:02:00,
2013-05-09 02:11:00,40.0,37.0,-100.00,ESE,107,3.0,4.0,88,0.00,,,-99.99,,2013-05-09 08:11:00,
2013-05-09 02:21:00,40.0,37.0,-100.00,ESE,107,3.0,4.0,89,0.00,,,-99.99,,2013-05-09 08:21:00,
2013-05-09 02:32:00,40.0,36.0,-100.00,ESE,107,2.0,4.0,87,0.00,,,-99.99,,2013-05-09 08:32:00,
2013-05-09 02:41:00,40.0,36.0,-100.00,ESE,107,2.0,3.0,88,0.00,,,-99.99,,2013-05-09 08:41:00,
2013-05-09 02:51:00,40.0,36.0,-100.00,ESE,107,3.0,4.0,85,0.00,,,-99.99,,2013-05-09 08:51:00,
2013-05-09 03:02:00,39.0,35.0,-100.00,ESE,107,2.0,4.0,84,0.00,,,-99.99,,2013-05-09 09:02:00,
2013-05-09 03:11:00,38.0,35.0,-100.00,ESE,107,3.0,5.0,86,0.00,,,-99.99,,2013-05-09 09:11:00,
2013-05-09 03:21:00,39.0,35.0,-100.00,ESE,107,2.0,4.0,87,0.00,,,-99.99,,2013-05-09 09:21:00,
2013-05-09 03:32:00,39.0,35.0,-100.00,ESE,107,1.0,2.0,85,0.00,,,-99.99,,2013-05-09 09:32:00,
2013-05-09 03:42:00,39.0,35.0,-100.00,ESE,107,2.0,4.0,85,0.00,,,-99.99,,2013-05-09 09:42:00,
2013-05-09 03:52:00,38.0,35.0,-100.00,ESE,107,3.0,4.0,85,0.00,,,-99.99,,2013-05-09 09:52:00,
2013-05-09 04:02:00,39.0,35.0,-100.00,ESE,107,3.0,4.0,85,0.00,,,-99.99,,2013-05-09 10:02:00,
2013-05-09 04:12:00,38.0,34.0,-100.00,ESE,107,1.0,2.0,85,0.00,,,-99.99,,2013-05-09 10:12:00,
2013-05-09 04:22:00,38.0,34.0,-100.00,ESE,107,1.0,2.0,84,0.00,,,-99.99,,2013-05-09 10:22:00,
2013-05-09 04:33:00,38.0,33.0,-100.00,ESE,107,1.0,2.0,84,0.00,,,-99.99,,2013-05-09 10:33:00,
2013-05-09 04:42:00,37.0,33.0,-100.00,ESE,107,2.0,3.0,86,0.00,,,-99.99,,2013-05-09 10:42:00,
2013-05-09 04:52:00,38.0,34.0,-100.00,ESE,107,2.0,2.0,84,0.00,,,-99.99,,2013-05-09 10:52:00,
2013-05-09 05:02:00,38.0,33.0,-100.00,ESE,107,2.0,3.0,83,0.00,,,-99.99,,2013-05-09 11:02:00,
2013-05-09 05:12:00,37.0,33.0,-100.00,ESE,107,2.0,3.0,84,0.00,,,-99.99,,2013-05-09 11:12:00,
2013-05-09 05:22:00,37.0,33.0,-100.00,ESE,107,1.0,2.0,86,0.00,,,-99.99,,2013-05-09 11:22:00,
2013-05-09 05:32:00,38.0,34.0,-100.00,ESE,107,1.0,2.0,86,0.00,,,-99.99,,2013-05-09 11:32:00,
2013-05-09 05:41:00,38.0,34.0,-100.00,ESE,107,2.0,2.0,85,0.00,,,-99.99,,2013-05-09 11:41:00,
2013-05-09 05:51:00,38.0,34.0,-100.00,ESE,107,1.0,2.0,84,0.00,,,-99.99,,2013-05-09 11:51:00,
2013-05-09 06:01:00,39.0,34.0,-100.00,ESE,107,1.0,3.0,84,0.00,,,-99.99,,2013-05-09 12:01:00,
2013-05-09 06:11:00,39.0,35.0,-100.00,ESE,107,3.0,4.0,85,0.00,,,-99.99,,2013-05-09 12:11:00,
2013-05-09 06:22:00,39.0,35.0,-100.00,ESE,107,4.0,6.0,85,0.00,,,-99.99,,2013-05-09 12:22:00,
2013-05-09 06:32:00,39.0,35.0,-100.00,ESE,107,4.0,5.0,84,0.00,,,-99.99,,2013-05-09 12:32:00,
2013-05-09 06:42:00,39.0,34.0,-100.00,ESE,107,2.0,4.0,83,0.00,,,-99.99,,2013-05-09 12:42:00,
2013-05-09 06:51:00,38.0,34.0,-100.00,ESE,107,1.0,2.0,86,0.00,,,-99.99,,2013-05-09 12:51:00,
2013-05-09 07:01:00,39.0,35.0,-100.00,ESE,107,1.0,3.0,84,0.00,,,-99.99,,2013-05-09 13:01:00,
2013-05-09 07:12:00,39.0,35.0,-100.00,ESE,107,2.0,4.0,85,0.00,,,-99.99,,2013-05-09 13:12:00,
2013-05-09 07:21:00,40.0,34.0,-100.00,ESE,107,1.0,2.0,78,0.00,,,-99.99,,2013-05-09 13:21:00,
2013-05-09 07:32:00,41.0,34.0,-100.00,ESE,107,1.0,2.0,76,0.00,,,-99.99,,2013-05-09 13:32:00,
2013-05-09 07:42:00,42.0,35.0,-100.00,ESE,107,1.0,3.0,78,0.00,,,-99.99,,2013-05-09 13:42:00,
2013-05-09 07:52:00,42.0,36.0,-100.00,ESE,107,1.0,2.0,81,0.00,,,-99.99,,2013-05-09 13:52:00,
2013-05-09 08:01:00,42.0,36.0,-100.00,ESE,107,1.0,2.0,82,0.00,,,-99.99,,2013-05-09 14:01:00,
2013-05-09 08:11:00,42.0,36.0,-100.00,ESE,107,1.0,2.0,79,0.00,,,-99.99,,2013-05-09 14:11:00,
2013-05-09 08:21:00,42.0,36.0,-100.00,ESE,107,1.0,2.0,78,0.00,,,-99.99,,2013-05-09 14:21:00,
2013-05-09 08:32:00,42.0,36.0,-100.00,ESE,107,1.0,2.0,78,0.00,,,-99.99,,2013-05-09 14:32:00,
2013-05-09 08:41:00,42.0,35.0,-100.00,ESE,107,2.0,2.0,77,0.00,,,-99.99,,2013-05-09 14:41:00,
2013-05-09 08:52:00,43.0,36.0,-100.00,ESE,107,1.0,2.0,76,0.00,,,-99.99,,2013-05-09 14:52:00,
2013-05-09 09:01:00,43.0,36.0,-100.00,ESE,107,1.0,1.0,74,0.00,,,-99.99,,2013-05-09 15:01:00,
2013-05-09 09:11:00,43.0,35.0,-100.00,ESE,107,1.0,2.0,72,0.00,,,-99.99,,2013-05-09 15:11:00,
2013-05-09 09:22:00,44.0,35.0,-100.00,ESE,107,1.0,2.0,70,0.00,,,-99.99,,2013-05-09 15:22:00,
2013-05-09 09:33:00,45.0,35.0,-100.00,ESE,107,1.0,4.0,69,0.00,,,-99.99,,2013-05-09 15:33:00,
2013-05-09 09:43:00,45.0,35.0,-100.00,ESE,107,1.0,6.0,68,0.00,,,-99.99,,2013-05-09 15:43:00,
2013-05-09 09:52:00,46.0,34.0,-100.00,ESE,107,2.0,5.0,62,0.00,,,-99.99,,2013-05-09 15:52:00,
2013-05-09 10:03:00,46.0,33.0,-100.00,ESE,107,2.0,4.0,60,0.00,,,-99.99,,2013-05-09 16:03:00,
2013-05-09 10:12:00,47.0,32.0,-100.00,ESE,107,3.0,6.0,56,0.00,,,-99.99,,2013-05-09 16:12:00,
2013-05-09 10:22:00,47.0,32.0,-100.00,ESE,107,4.0,7.0,56,0.00,,,-99.99,,2013-05-09 16:22:00,
2013-05-09 10:33:00,48.0,33.0,-100.00,ESE,107,4.0,9.0,55,0.00,,,-99.99,,2013-05-09 16:33:00,
2013-05-09 10:42:00,47.0,32.0,-100.00,ESE,107,4.0,7.0,55,0.00,,,-99.99,,2013-05-09 16:42:00,
2013-05-09 10:52:00,47.0,33.0,-100.00,ESE,107,3.0,7.0,57,0.00,,,-99.99,,2013-05-09 16:52:00,
2013-05-09 11:02:00,48.0,32.0,-100.00,ESE,107,3.0,7.0,53,0.00,,,-99.99,,2013-05-09 17:02:00,
2013-05-09 11:12:00,48.0,31.0,-100.00,ESE,107,5.0,10.0,53,0.00,,,-99.99,,2013-05-09 17:12:00,
2013-05-09 11:21:00,48.0,31.0,-100.00,ESE,107,6.0,13.0,52,0.00,,,-99.99,,2013-05-09 17:21:00,
2013-05-09 11:32:00,47.0,32.0,-100.00,ESE,107,7.0,11.0,55,0.00,,,-99.99,,2013-05-09 17:32:00,
2013-05-09 11:42:00,48.0,31.0,-100.00,ESE,107,6.0,12.0,50,0.00,,,-99.99,,2013-05-09 17:42:00,
2013-05-09 11:55:00,49.0,31.0,-100.00,ESE,107,6.0,12.0,50,0.00,,,-99.99,,2013-05-09 17:55:00,
2013-05-09 12:01:00,50.0,32.0,-100.00,ESE,107,6.0,11.0,51,0.00,,,-99.99,,2013-05-09 18:01:00,
2013-05-09 12:12:00,49.0,33.0,-100.00,ESE,107,7.0,16.0,53,0.00,,,-99.99,,2013-05-09 18:12:00,
2013-05-09 12:21:00,49.0,32.0,-100.00,ESE,107,5.0,10.0,53,0.00,,,-99.99,,2013-05-09 18:21:00,
2013-05-09 12:32:00,50.0,30.0,-100.00,ESE,107,6.0,10.0,46,0.00,,,-99.99,,2013-05-09 18:32:00,
2013-05-09 12:42:00,50.0,31.0,-100.00,ESE,107,4.0,13.0,48,0.00,,,-99.99,,2013-05-09 18:42:00,
2013-05-09 12:52:00,46.0,34.0,-100.00,ESE,107,9.0,23.0,61,0.00,,,-99.99,,2013-05-09 18:52:00,
2013-05-09 13:01:00,42.0,35.0,-100.00,ESE,107,12.0,20.0,74,0.07,,,-99.99,,2013-05-09 19:01:00,
2013-05-09 13:11:00,44.0,38.0,-100.00,ESE,107,12.0,16.0,81,0.00,,,-99.99,,2013-05-09 19:11:00,
2013-05-09 13:21:00,46.0,39.0,-100.00,ESE,107,9.0,13.0,75,0.00,,,-99.99,,2013-05-09 19:21:00,
2013-05-09 13:31:00,48.0,35.0,-100.00,ESE,107,6.0,9.0,61,0.00,,,-99.99,,2013-05-09 19:31:00,
2013-05-09 13:41:00,49.0,40.0,-100.00,ESE,107,4.0,9.0,68,0.00,,,-99.99,,2013-05-09 19:41:00,
2013-05-09 13:52:00,50.0,39.0,-100.00,ESE,107,6.0,12.0,67,0.00,,,-99.99,,2013-05-09 19:52:00,
2013-05-09 14:01:00,50.0,36.0,-100.00,ESE,107,6.0,11.0,58,0.00,,,-99.99,,2013-05-09 20:01:00,
2013-05-09 14:11:00,52.0,34.0,-100.00,ESE,107,4.0,9.0,51,0.00,,,-99.99,,2013-05-09 20:11:00,
2013-05-09 14:22:00,51.0,32.0,-100.00,ESE,107,4.0,6.0,48,0.00,,,-99.99,,2013-05-09 20:22:00,
2013-05-09 14:32:00,52.0,34.0,-100.00,ESE,107,2.0,7.0,50,0.00,,,-99.99,,2013-05-09 20:32:00,
2013-05-09 14:42:00,52.0,35.0,-100.00,ESE,107,3.0,9.0,53,0.00,,,-99.99,,2013-05-09 20:42:00,
2013-05-09 14:52:00,51.0,31.0,-100.00,ESE,107,7.0,13.0,45,0.00,,,-99.99,,2013-05-09 20:52:00,
2013-05-09 15:02:00,53.0,31.0,-100.00,ESE,107,6.0,13.0,44,0.00,,,-99.99,,2013-05-09 21:02:00,
2013-05-09 15:11:00,52.0,33.0,-100.00,ESE,107,8.0,16.0,48,0.00,,,-99.99,,2013-05-09 21:11:00,
2013-05-09 15:22:00,51.0,33.0,-100.00,ESE,107,13.0,23.0,50,0.00,,,-99.99,,2013-05-09 21:22:00,
2013-05-09 15:32:00,50.0,29.0,-100.00,ESE,107,10.0,20.0,44,0.00,,,-99.99,,2013-05-09 21:32:00,
2013-05-09 15:43:00,51.0,33.0,-100.00,ESE,107,9.0,17.0,50,0.00,,,-99.99,,2013-05-09 21:43:00,
2013-05-09 15:52:00,50.0,33.0,-100.00,ESE,107,8.0,15.0,53,0.00,,,-99.99,,2013-05-09 21:52:00,
2013-05-09 16:03:00,50.0,32.0,-100.00,ESE,107,6.0,10.0,49,0.00,,,-99.99,,2013-05-09 22:03:00,
2013-05-09 16:12:00,48.0,35.0,-100.00,ESE,107,7.0,21.0,60,0.00,,,-99.99,,2013-05-09 22:12:00,
2013-05-09 16:22:00,46.0,36.0,-100.00,ESE,107,17.0,27.0,68,0.00,,,-99.99,,2013-05-09 22:22:00,
2013-05-09 16:33:00,45.0,37.0,-100.00,ESE,107,14.0,22.0,75,0.03,,,-99.99,,2013-05-09 22:33:00,
2013-05-09 16:42:00,45.0,35.0,-100.00,ESE,107,10.0,17.0,68,0.00,,,-99.99,,2013-05-09 22:42:00,
2013-05-09 16:52:00,46.0,36.0,-100.00,ESE,107,10.0,16.0,68,0.00,,,-99.99,,2013-05-09 22:52:00,
2013-05-09 17:02:00,46.0,35.0,-100.00,ESE,107,8.0,12.0,65,0.00,,,-99.99,,2013-05-09 23:02:00,
2013-05-09 17:12:00,46.0,36.0,-100.00,ESE,107,8.0,12.0,69,0.00,,,-99.99,,2013-05-09 23:12:00,
2013-05-09 17:21:00,45.0,36.0,-100.00,ESE,107,9.0,13.0,70,0.00,,,-99.99,,2013-05-09 23:21:00,
2013-05-09 17:32:00,46.0,38.0,-100.00,ESE,107,11.0,15.0,72,0.00,,,-99.99,,2013-05-09 23:32:00,
2013-05-09 17:42:00,46.0,37.0,-100.00,ESE,107,13.0,16.0,70,0.00,,,-99.99,,2013-05-09 23:42:00,
2013-05-09 17:52:00,47.0,37.0,-100.00,ESE,107,12.0,15.0,69,0.00,,,-99.99,,2013-05-09 23:52:00,
2013-05-09 18:01:00,47.0,37.0,-100.00,ESE,107,13.0,16.0,70,0.00,,,-99.99,,2013-05-10 00:01:00,
2013-05-09 18:11:00,47.0,35.0,-100.00,ESE,107,14.0,16.0,64,0.00,,,-99.99,,2013-05-10 00:11:00,
2013-05-09 18:22:00,47.0,33.0,-100.00,ESE,107,14.0,19.0,57,0.01,,,-99.99,,2013-05-10 00:22:00,
2013-05-09 18:32:00,47.0,32.0,-100.00,NNE,31,19.0,26.0,54,0.00,,,-99.99,,2013-05-10 00:32:00,
2013-05-09 18:42:00,49.0,30.0,-100.00,NNW,332,15.0,22.0,48,0.00,,,-99.99,,2013-05-10 00:42:00,
2013-05-09 18:51:00,49.0,31.0,-100.00,WSW,250,4.0,9.0,50,0.00,,,-99.99,,2013-05-10 00:51:00,
2013-05-09 19:01:00,48.0,33.0,-100.00,SW,219,6.0,11.0,55,0.00,,,-99.99,,2013-05-10 01:01:00,
2013-05-09 19:11:00,48.0,34.0,-100.00,SW,233,4.0,7.0,57,0.00,,,-99.99,,2013-05-10 01:11:00,
2013-05-09 19:21:00,47.0,32.0,-100.00,WSW,253,6.0,7.0,55,0.00,,,-99.99,,2013-05-10 01:21:00,
2013-05-09 19:32:00,47.0,31.0,-100.00,WSW,243,5.0,6.0,53,0.00,,,-99.99,,2013-05-10 01:32:00,
2013-05-09 19:41:00,47.0,32.0,-100.00,WSW,250,4.0,6.0,55,0.00,,,-99.99,,2013-05-10 01:41:00,
2013-05-09 19:52:00,45.0,36.0,-100.00,NNE,17,4.0,8.0,72,0.00,,,-99.99,,2013-05-10 01:52:00,
2013-05-09 20:01:00,45.0,36.0,-100.00,ENE,65,6.0,9.0,70,0.00,,,-99.99,,2013-05-10 02:01:00,
2013-05-09 20:11:00,45.0,36.0,-100.00,ENE,71,3.0,6.0,70,0.00,,,-99.99,,2013-05-10 02:11:00,
2013-05-09 20:21:00,44.0,37.0,-100.00,SE,134,7.0,11.0,75,0.00,,,-99.99,,2013-05-10 02:21:00,
2013-05-09 20:32:00,43.0,37.0,-100.00,SSE,161,7.0,11.0,81,0.00,,,-99.99,,2013-05-10 02:32:00,
2013-05-09 20:42:00,42.0,38.0,-100.00,South,171,8.0,11.0,82,0.00,,,-99.99,,2013-05-10 02:42:00,
2013-05-09 20:52:00,42.0,38.0,-100.00,South,179,7.0,10.0,86,0.00,,,-99.99,,2013-05-10 02:52:00,
2013-05-09 21:01:00,41.0,38.0,-100.00,South,184,5.0,7.0,88,0.00,,,-99.99,,2013-05-10 03:01:00,
2013-05-09 21:11:00,41.0,37.0,-100.00,SSW,195,6.0,7.0,87,0.00,,,-99.99,,2013-05-10 03:11:00,
2013-05-09 21:21:00,41.0,37.0,-100.00,South,189,6.0,8.0,86,0.00,,,-99.99,,2013-05-10 03:21:00,
2013-05-09 21:33:00,41.0,37.0,-100.00,SSW,198,6.0,9.0,86,0.00,,,-99.99,,2013-05-10 03:33:00,
2013-05-09 21:43:00,41.0,37.0,-100.00,SW,217,7.0,9.0,87,0.00,,,-99.99,,2013-05-10 03:43:00,
2013-05-09 21:52:00,41.0,37.0,-100.00,SW,230,5.0,9.0,87,0.00,,,-99.99,,2013-05-10 03:52:00,
2013-05-09 22:03:00,40.0,36.0,-100.00,West,277,1.0,4.0,87,0.00,,,-99.99,,2013-05-10 04:03:00,
2013-05-09 22:12:00,40.0,36.0,-100.00,ENE,58,9.0,21.0,86,0.00,,,-99.99,,2013-05-10 04:12:00,
2013-05-09 22:23:00,39.0,36.0,-100.00,ENE,76,11.0,15.0,89,0.00,,,-99.99,,2013-05-10 04:23:00,
2013-05-09 22:33:00,38.0,36.0,-100.00,East,95,7.0,14.0,91,0.00,,,-99.99,,2013-05-10 04:33:00,
2013-05-09 22:42:00,39.0,37.0,-100.00,East,83,7.0,10.0,92,0.00,,,-99.99,,2013-05-10 04:42:00,
2013-05-09 22:52:00,39.0,37.0,-100.00,East,86,7.0,10.0,93,0.00,,,-99.99,,2013-05-10 04:52:00,
2013-05-09 23:02:00,39.0,38.0,-100.00,East,79,4.0,7.0,94,0.00,,,-99.99,,2013-05-10 05:02:00,
2013-05-09 23:12:00,40.0,37.0,-100.00,ESE,114,4.0,7.0,92,0.00,,,-99.99,,2013-05-10 05:12:00,
2013-05-09 23:22:00,40.0,38.0,-100.00,ESE,114,4.0,7.0,93,0.00,,,-99.99,,2013-05-10 05:22:00,
2013-05-09 23:32:00,39.0,37.0,-100.00,SSE,151,4.0,7.0,93,0.00,,,-99.99,,2013-05-10 05:32:00,
2013-05-09 23:42:00,38.0,37.0,-100.00,SSW,193,3.0,4.0,94,0.00,,,-99.99,,2013-05-10 05:42:00,
2013-05-09 23:52:00,39.0,37.0,-100.00,South,191,3.0,6.0,95,0.00,,,-99.99,,2013-05-10 05:52:00,